Location: Peebles
(55.6412°N, 3.1714°W)
Time: 15:11:04
(UTC+01:00)

FLOCK 4S 19 - Pass Details

Date: 11 July 2022
Orbit: 507 x 523 km, 97.4° (Epoch: 16 August)

Event Time Altitude Azimuth Distance (km) Brightness Sun altitude
Rises 22:55:11 0° 199° (SSW) 2,650 ? -6.6°
Reaches altitude 10° 22:57:37 10° 214° (SW) 1,765 ? -6.8°
Maximum altitude 23:00:41 23° 268° (W) 1,156 ? -7.0°
Drops below altitude 10° 23:03:46 10° 322° (NW) 1,772 ? -7.3°
Sets 23:06:13 0° 337° (NNW) 2,663 ? -7.4°
